Centennial Airport Denver US
ICAO: KAPA
IATA: APA
Category: Medium
Scheduled Services: No

Elevation: 5885 ft
TransAlt. 18000 ft.

Airport Communications:
DENVER APP/DEP:132.75
ATIS:120.3
CLNC DEL:128.6
GND:121.8
DENVER RDO:122.2
TWR:118.9
UNICOM:122.95

KAPA Zoom In..

If you have problems with the map follow the link
https://www.worldairports.se/pages/airport.php?
ICAO=KAPA

Runways:

(A) RW 10 length 4800 ft width 75 ft
---- / hdg 100

(B) RW 17L length 10001 ft width 100 ft
---- / hdg 167

(C) RW 17R length 7000 ft width 77 ft
---- / hdg 167

(D) RW 28 length 4800 ft width 75 ft
---- / hdg 280

(E) RW 35L length 7000 ft width 77 ft
---- / hdg 347

(F) RW 35R length 10001 ft width 100 ft
ILS 111.30 / hdg 347

Location; KAPA
Day. 23 / Time. 06.53 Zulu
* Altimeter: 30.25
* Temperature: 11° c. 51.8°f.
* Wind from: 160° Speed 08 kn.
Dewpoint: 00° c.
Visibility: 10 Statute Miles.
Clouds: Scattered 1000 ft.

KAPA 230653Z 16008KT 10SM SCT100 11/00 A3025 RMK AO2 SLP195 T01110000 402280033


Wind From 160°
Speed 08 kn.

 
 
jpsmedia.com for Web Design worldairports.se 2018   terms of use